GW6341 Weather Reports


time (UTC)temp
C
wind
direction
speed
KPH
gust
KPH
rain 1hr
cm
rain 24hr
cm
rain mn
cm
humidity
%
barometer
mb
20260505130123 8 12 0.0 0.0 0.00 0.00 0.00 99 1014.0
20260505124613 8 16 0.0 0.0 0.00 0.00 0.00 99 1014.1
20260505124109 8 16 0.0 0.0 0.00 0.00 0.00 99 1013.8
20260505123605 8 16 0.0 0.0 0.00 0.00 0.00 99 1014.0
20260505123102 8 16 0.0 0.0 0.00 0.00 0.00 99 1013.9
20260505122559 8 16 0.0 0.0 0.00 0.00 0.00 99 1013.8
20260505122056 8 16 0.0 0.0 0.00 0.00 0.00 99 1014.0
20260505121552 8 16 0.0 0.0 0.00 0.00 0.00 99 1014.0
20260505121049 8 16 0.0 1.6 0.00 0.00 0.00 99 1013.9
20260505120546 8 15 0.0 1.6 0.00 0.00 0.00 99 1014.0
20260505120041 8 10 1.6 1.6 0.00 0.00 0.00 99 1013.8
20260505115536 8 14 1.6 1.6 0.00 0.00 0.00 99 1013.8
20260505115034 7 16 0.0 0.0 0.00 0.00 0.00 99 1013.8
20260505114530 7 16 0.0 0.0 0.00 0.00 0.00 99 1013.8
20260505114027 7 16 0.0 0.0 0.00 0.00 0.00 99 1013.8
20260505113523 7 16 0.0 0.0 0.00 0.00 0.00 99 1013.7
20260505113020 8 16 0.0 0.0 0.00 0.00 0.00 99 1013.7
20260505112517 8 16 0.0 0.0 0.00 0.00 0.00 99 1013.7
20260505112015 8 16 0.0 0.0 0.00 0.00 0.00 99 1013.8
20260505111513 7 16 0.0 0.0 0.00 0.00 0.00 99 1013.8
20260505111010 7 16 0.0 0.0 0.00 0.00 0.00 99 1013.7
20260505110507 7 16 0.0 0.0 0.00 0.00 0.00 99 1013.5
20260505101939 8 16 0.0 0.0 0.00 0.00 0.00 99 1013.1
20260505101438 8 16 0.0 0.0 0.00 0.00 0.00 99 1013.4
20260505100934 8 16 0.0 0.0 0.00 0.00 0.00 99 1013.3
20260505100431 8 16 0.0 0.0 0.00 0.00 0.00 99 1013.2
20260505095926 8 16 0.0 0.0 0.00 0.00 0.00 99 1013.5
20260505095424 8 16 0.0 0.0 0.00 0.00 0.00 99 1013.2
20260505094920 8 16 0.0 0.0 0.00 0.00 0.00 99 1013.1
20260505094417 8 16 0.0 0.0 0.00 0.00 0.00 99 1013.1
20260505093913 8 16 0.0 0.0 0.00 0.00 0.00 99 1013.2
20260505093410 8 16 0.0 0.0 0.00 0.00 0.00 99 1013.2
20260505092907 8 16 0.0 0.0 0.00 0.00 0.00 99 1013.2
20260505092405 8 16 0.0 0.0 0.00 0.00 0.00 99 1013.1
20260505091902 8 16 0.0 0.0 0.00 0.00 0.00 99 1013.0
20260505091400 8 16 0.0 0.0 0.00 0.00 0.00 99 1013.3
20260505090858 8 18 0.0 0.0 0.00 0.00 0.00 99 1013.5
20260505090356 8 19 0.0 0.0 0.00 0.00 0.00 99 1013.3
20260505085853 8 22 0.0 0.0 0.00 0.00 0.00 99 1013.2
20260505085351 8 22 0.0 0.0 0.00 0.00 0.00 99 1013.0
20260505084848 8 22 0.0 0.0 0.00 0.00 0.00 99 1013.2
20260505084346 8 22 0.0 0.0 0.00 0.00 0.00 99 1013.0
20260505083844 8 22 0.0 0.0 0.00 0.00 0.00 99 1013.0
20260505083341 8 22 0.0 0.0 0.00 0.00 0.00 99 1013.0
20260505082837 8 22 1.6 1.6 0.00 0.00 0.00 99 1013.0
20260505082333 8 20 0.0 0.0 0.00 0.00 0.00 99 1013.0
20260505081830 8 20 0.0 0.0 0.00 0.00 0.00 99 1013.0
20260505081327 8 20 0.0 0.0 0.00 0.00 0.00 99 1012.8
20260505080824 8 20 0.0 0.0 0.00 0.00 0.00 99 1012.8
20260505080320 8 19 0.0 0.0 0.00 0.00 0.00 99 1012.7
20260505075815 8 22 0.0 0.0 0.00 0.00 0.00 98 1012.6
20260505075313 8 19 0.0 0.0 0.00 0.00 0.00 98 1012.6
20260505074810 8 22 0.0 0.0 0.00 0.00 0.00 98 1012.7
20260505074307 8 27 0.0 0.0 0.00 0.00 0.00 98 1012.7
20260505073804 8 28 0.0 0.0 0.00 0.00 0.00 98 1012.5
20260505073302 8 27 0.0 0.0 0.00 0.00 0.00 98 1012.7
20260505072759 8 27 0.0 0.0 0.00 0.00 0.00 98 1012.4
20260505072255 8 27 0.0 0.0 0.00 0.00 0.00 98 1012.4
20260505071751 8 27 0.0 0.0 0.00 0.00 0.00 98 1012.4
20260505071247 8 27 0.0 0.0 0.00 0.00 0.00 98 1012.6
20260505070745 8 28 0.0 0.0 0.00 0.00 0.00 98 1012.5
20260505070241 8 28 0.0 0.0 0.00 0.00 0.00 98 1012.5
20260505065737 8 28 0.0 0.0 0.00 0.00 0.00 98 1012.4
20260505065234 8 28 0.0 0.0 0.00 0.00 0.00 98 1012.4
20260505064731 8 28 0.0 0.0 0.00 0.00 0.00 98 1012.4
20260505064229 8 28 0.0 0.0 0.00 0.00 0.00 97 1012.5
20260505063726 8 28 0.0 0.0 0.00 0.00 0.00 97 1012.4
20260505063222 8 28 0.0 0.0 0.00 0.00 0.00 97 1012.3
20260505062718 8 28 0.0 0.0 0.00 0.00 0.00 97 1012.4
20260505062216 8 27 0.0 0.0 0.00 0.00 0.00 96 1012.3
20260505061713 9 28 0.0 0.0 0.00 0.00 0.00 96 1012.5
20260505061211 9 29 0.0 0.0 0.00 0.00 0.00 96 1012.7
20260505060708 9 30 0.0 0.0 0.00 0.00 0.00 95 1012.4
20260505060205 9 30 0.0 0.0 0.00 0.00 0.00 95 1012.4
20260505055700 9 30 0.0 0.0 0.00 0.00 0.00 95 1012.7
20260505055157 9 30 0.0 1.6 0.00 0.00 0.00 95 1012.4
20260505054654 9 30 0.0 1.6 0.00 0.00 0.00 95 1012.4
20260505054152 10 30 0.0 0.0 0.00 0.00 0.00 94 1012.3
20260505053650 10 30 0.0 1.6 0.00 0.00 0.00 93 1012.7
20260505053146 10 30 0.0 0.0 0.00 0.00 0.00 93 1012.4
20260505052643 10 29 0.0 1.6 0.00 0.00 0.00 93 1012.4
20260505052140 10 30 0.0 0.0 0.00 0.00 0.00 92 1012.5
20260505051637 10 30 0.0 1.6 0.00 0.00 0.00 92 1012.4
20260505051136 10 30 0.0 0.0 0.00 0.00 0.00 91 1012.2
20260505050633 10 30 0.0 0.0 0.00 0.00 0.00 91 1012.3
20260505050131 10 30 0.0 1.6 0.00 0.00 0.00 91 1012.2
20260505041601 11 32 0.0 1.6 0.00 0.00 0.00 89 1011.5
20260505041058 11 23 1.6 1.6 0.00 0.00 0.00 89 1011.4
20260505040555 11 32 0.0 0.0 0.00 0.00 0.00 88 1011.4
20260505040052 12 44 0.0 0.0 0.00 0.00 0.00 88 1011.4
20260505035548 12 42 0.0 0.0 0.00 0.00 0.00 88 1011.1
20260505035045 12 36 0.0 1.6 0.00 0.00 0.00 88 1011.1
20260505034541 12 30 1.6 1.6 0.00 0.00 0.00 87 1011.1
20260505034038 12 41 1.6 1.6 0.00 0.00 0.00 87 1011.0
20260505033535 12 32 1.6 1.6 0.00 0.00 0.00 87 1010.9
20260505033034 12 27 1.6 1.6 0.00 0.00 0.00 87 1010.9
20260505032531 12 22 1.6 1.6 0.00 0.00 0.00 86 1010.9
20260505032027 12 44 0.0 0.0 0.00 0.00 0.00 86 1010.9
20260505031525 13 32 1.6 1.6 0.00 0.00 0.00 85 1010.8
20260505031021 13 181 0.0 1.6 0.00 0.00 0.00 84 1010.7
20260505030518 13 56 0.0 0.0 0.00 0.00 0.00 84 1010.8
20260505030014 13 43 0.0 0.0 0.00 0.00 0.00 84 1010.8
20260505025510 13 114 1.6 1.6 0.00 0.00 0.00 82 1010.7
20260505025009 14 74 1.6 1.6 0.00 0.00 0.00 82 1010.8
20260505024505 14 58 0.0 0.0 0.00 0.00 0.00 82 1010.4
20260505024003 15 28 1.6 1.6 0.00 0.00 0.00 80 1010.1
20260505023459 15 101 0.0 1.6 0.00 0.00 0.00 80 1010.1
20260505022957 15 164 4.8 8.0 0.00 0.00 0.00 80 1010.1
20260505022455 15 73 1.6 1.6 0.00 0.00 0.00 78 1010.0
20260505021952 15 45 0.0 0.0 0.00 0.00 0.00 79 1010.5
20260505021448 15 55 0.0 0.0 0.00 0.00 0.00 77 1010.2
20260505020944 16 67 0.0 0.0 0.00 0.00 0.00 78 1010.4
20260505020439 16 38 0.0 0.0 0.00 0.00 0.00 77 1010.4
20260505015936 16 109 1.6 1.6 0.00 0.00 0.00 76 1010.6
20260505015433 16 100 4.8 4.8 0.00 0.00 0.00 76 1010.4
20260505014931 16 51 0.0 0.0 0.00 0.00 0.00 76 1010.4
20260505014428 17 35 1.6 1.6 0.00 0.00 0.00 75 1010.4
20260505013925 17 115 1.6 3.2 0.00 0.00 0.00 74 1010.1
20260505013421 17 35 1.6 1.6 0.00 0.00 0.00 75 1010.1
20260505012919 17 80 0.0 0.0 0.00 0.00 0.00 74 1010.4
20260505012417 17 150 1.6 3.2 0.00 0.00 0.00 74 1010.5
20260505011913 17 46 0.0 0.0 0.00 0.00 0.00 73 1010.6
20260505011410 17 159 4.8 4.8 0.00 0.00 0.00 74 1010.7
20260505010906 18 56 1.6 3.2 0.00 0.00 0.00 73 1010.6
20260505010402 18 27 0.0 1.6 0.00 0.00 0.00 72 1010.5
20260505005858 18 56 1.6 1.6 0.00 0.00 0.00 72 1010.5
20260505005355 18 44 1.6 1.6 0.00 0.00 0.00 73 1010.6
20260505004853 19 191 1.6 3.2 0.00 0.00 0.00 72 1010.8
20260505004349 19 114 4.8 4.8 0.00 0.00 0.00 72 1010.5
20260505003846 19 99 1.6 1.6 0.00 0.00 0.00 71 1010.6
20260505003344 20 81 0.0 0.0 0.00 0.00 0.00 70 1010.4
20260505002839 20 61 0.0 1.6 0.00 0.00 0.00 69 1010.7
20260505002336 20 93 1.6 3.2 0.00 0.00 0.00 68 1010.5
20260505001835 20 208 3.2 3.2 0.00 0.00 0.00 69 1010.7
20260505001331 20 102 1.6 1.6 0.00 0.00 0.00 71 1010.7
20260505000829 20 118 3.2 3.2 0.00 0.00 0.00 71 1010.6
20260505000326 20 140 1.6 1.6 0.00 0.00 0.00 71 1010.7
20260504235823 20 204 6.4 8.0 0.00 0.00 0.00 66 1010.9
20260504235320 20 208 4.8 4.8 0.00 0.00 0.00 67 1010.9
20260504234817 20 98 3.2 3.2 0.00 0.00 0.00 69 1010.7
20260504234314 20 159 3.2 4.8 0.00 0.00 0.00 73 1010.8
20260504233810 21 169 4.8 4.8 0.00 0.00 0.00 69 1010.9
20260504233306 20 92 1.6 3.2 0.00 0.00 0.00 73 1010.8
20260504232803 20 162 4.8 4.8 0.00 0.00 0.00 70 1010.8
20260504232300 20 143 8.0 9.7 0.00 0.00 0.00 71 1010.9
20260504231757 20 170 4.8 4.8 0.00 0.00 0.00 69 1010.7
20260504231254 20 92 1.6 3.2 0.00 0.00 0.00 67 1010.7
20260504230750 21 204 4.8 4.8 0.00 0.00 0.00 65 1010.8
20260504230248 20 236 3.2 3.2 0.00 0.00 0.00 67 1011.3
20260504225747 21 179 6.4 9.7 0.00 0.00 0.00 69 1011.0
20260504225242 21 85 1.6 3.2 0.00 0.00 0.00 69 1011.2
20260504224740 20 54 1.6 1.6 0.00 0.00 0.00 71 1011.1
20260504224237 21 187 8.0 11.3 0.00 0.00 0.00 69 1011.2
20260504223733 21 326 3.2 3.2 0.00 0.00 0.00 68 1011.2
20260504223229 20 172 4.8 4.8 0.00 0.00 0.00 71 1011.3
20260504222726 21 229 6.4 8.0 0.00 0.00 0.00 69 1011.2
20260504222223 20 177 9.7 11.3 0.00 0.00 0.00 71 1011.4
20260504221720 21 240 4.8 8.0 0.00 0.00 0.00 73 1011.1
20260504221217 20 212 6.4 8.0 0.00 0.00 0.00 67 1011.5
20260504220714 20 207 8.0 9.7 0.00 0.00 0.00 70 1011.2
20260504220211 21 206 4.8 4.8 0.00 0.00 0.00 68 1011.6
20260504215707 20 154 4.8 8.0 0.00 0.00 0.00 70 1011.6
20260504215205 20 192 4.8 4.8 0.00 0.00 0.00 77 1011.4
20260504214700 20 217 6.4 9.7 0.00 0.00 0.00 73 1011.7
20260504214157 20 185 3.2 4.8 0.00 0.00 0.00 77 1011.6
20260504213654 20 191 8.0 9.7 0.00 0.00 0.00 77 1011.5
20260504213151 20 146 4.8 4.8 0.00 0.00 0.00 73 1011.4
20260504212647 20 115 1.6 1.6 0.00 0.00 0.00 75 1011.6
20260504212144 20 251 3.2 3.2 0.00 0.00 0.00 76 1011.8
20260504211641 20 237 4.8 4.8 0.00 0.00 0.00 79 1011.8
20260504211137 19 231 6.4 9.7 0.00 0.00 0.00 73 1011.8
20260504210635 20 261 4.8 4.8 0.00 0.00 0.00 75 1011.9
20260504210131 19 209 9.7 12.9 0.00 0.00 0.00 73 1011.9
20260504205629 18 77 1.6 3.2 0.00 0.00 0.00 73 1012.0
20260504205126 19 234 4.8 4.8 0.00 0.00 0.00 71 1012.1
20260504204625 18 192 6.4 8.0 0.00 0.00 0.00 77 1012.0
20260504204123 20 210 4.8 8.0 0.00 0.00 0.00 79 1012.1
20260504203622 18 185 4.8 4.8 0.00 0.00 0.00 74 1012.2
20260504203120 18 121 3.2 4.8 0.00 0.00 0.00 76 1012.2
20260504202619 19 190 8.0 12.9 0.00 0.00 0.00 77 1012.2
20260504202117 18 197 4.8 8.0 0.00 0.00 0.00 76 1012.3
20260504201613 18 187 8.0 11.3 0.00 0.00 0.00 78 1012.2
20260504201111 19 169 8.0 12.9 0.00 0.00 0.00 77 1012.1
20260504200608 18 277 3.2 4.8 0.00 0.00 0.00 80 1012.1
20260504200104 18 159 8.0 9.7 0.00 0.00 0.00 75 1012.3
20260504195600 18 185 3.2 4.8 0.00 0.00 0.00 76 1012.2
20260504195057 18 184 6.4 11.3 0.00 0.00 0.00 76 1012.2
20260504194554 17 188 3.2 3.2 0.00 0.00 0.00 77 1012.3
20260504194049 18 145 9.7 12.9 0.00 0.00 0.00 78 1012.2
20260504193546 18 81 3.2 3.2 0.00 0.00 0.00 76 1012.3
20260504193045 17 98 3.2 3.2 0.00 0.00 0.00 75 1012.3
20260504192543 17 205 6.4 8.0 0.00 0.00 0.00 78 1012.2
20260504192040 17 161 4.8 8.0 0.00 0.00 0.00 81 1012.2
20260504191538 18 179 4.8 4.8 0.00 0.00 0.00 76 1012.4
20260504191034 17 216 3.2 3.2 0.00 0.00 0.00 79 1012.5
20260504190531 17 225 6.4 8.0 0.00 0.00 0.00 82 1012.3
20260504190026 17 206 6.4 11.3 0.00 0.00 0.00 75 1012.6
20260504185524 17 113 4.8 4.8 0.00 0.00 0.00 79 1012.4
20260504185020 17 141 8.0 12.9 0.00 0.00 0.00 79 1012.4
20260504184515 18 179 4.8 8.0 0.00 0.00 0.00 76 1012.5
20260504184011 17 78 1.6 3.2 0.00 0.00 0.00 84 1012.5
20260504183509 17 180 12.9 14.5 0.00 0.00 0.00 77 1012.4
20260504183007 17 173 6.4 8.0 0.00 0.00 0.00 78 1012.5
20260504182503 17 115 1.6 3.2 0.00 0.00 0.00 77 1012.6
20260504182000 17 176 11.3 11.3 0.00 0.00 0.00 76 1012.5
20260504181457 17 180 3.2 3.2 0.00 0.00 0.00 81 1012.5
20260504180956 17 205 4.8 4.8 0.00 0.00 0.00 76 1012.6
20260504180455 17 184 4.8 8.0 0.00 0.00 0.00 74 1012.5
20260504175953 17 32 1.6 1.6 0.00 0.00 0.00 76 1012.5
20260504175449 16 108 0.0 1.6 0.00 0.00 0.00 77 1012.1
20260504174947 16 224 4.8 4.8 0.00 0.00 0.00 77 1012.3
20260504174444 17 126 3.2 3.2 0.00 0.00 0.00 76 1012.3
20260504173942 16 76 0.0 0.0 0.00 0.00 0.00 76 1012.4
20260504173437 15 62 0.0 0.0 0.00 0.00 0.00 80 1012.5
20260504172936 16 119 1.6 1.6 0.00 0.00 0.00 80 1012.5
20260504172431 16 93 1.6 1.6 0.00 0.00 0.00 80 1012.3
20260504171928 15 92 1.6 1.6 0.00 0.00 0.00 81 1012.5
20260504171425 15 60 3.2 3.2 0.00 0.00 0.00 84 1012.7
20260504170922 14 44 3.2 4.8 0.00 0.00 0.00 84 1012.9
20260504170418 15 55 3.2 3.2 0.00 0.00 0.00 82 1012.7
20260504160337 13 79 1.6 3.2 0.00 0.00 0.00 88 1012.5
20260504150802 10 56 0.0 0.0 0.00 0.00 0.00 96 1012.4
20260504150258 10 93 4.8 4.8 0.00 0.00 0.00 96 1012.2
20260504141229 11 57 3.2 3.2 0.00 0.00 0.00 93 1011.5
20260504140725 11 95 3.2 3.2 0.00 0.00 0.00 94 1011.6
20260504140220 10 89 0.0 0.0 0.00 0.00 0.00 94 1011.6